Regional Weather Roundup
Issued by NWS Jackson, KY

Home | Current Version | Previous Version | Text Only | Print | Product List | Glossary On
Versions: 1 2 3 4 5 6 7 8 9 10 11 12 13 14 15 16 17 18 19 20 21 22 23 24 25 26 27
000
ASUS43 KJKL 240610
RWRJKL

EAST KENTUCKY HOURLY WEATHER ROUNDUP
NATIONAL WEATHER SERVICE JACKSON KY
100 AM EST FRI NOV 24 2017

NOTE: "FAIR" INDICATES FEW OR NO CLOUDS BELOW 12,000 FEET WITH
NO SIGNIFICANT WEATHER AND/OR OBSTRUCTIONS TO VISIBILITY.

* THESE REPORTS ARE NOT UNDER NWS QUALITY CONTROL AND MAY NOT
  REPORT WEATHER SUCH AS PRECIPITATION AND FOG.

KYZ079-080-083-085-087-088-110-112-115-119-120-240700
...EASTERN KENTUCKY...

CITY           SKY/WX    TMP DP  RH WIND       PRES   REMARKS
JACKSON        CLEAR     38  19  46 CALM      30.03R
6HR MIN TEMP:  37; 6HR MAX TEMP:  45;

LONDON         CLEAR     30  25  81 CALM      30.04S
6HR MIN TEMP:  30; 6HR MAX TEMP:  39;

SOMERSET*      CLOUDY    30  27  86 CALM      30.07R
MONTICELLO*    CLEAR     25  23  92 W9        30.07R WCI  15
6HR MIN TEMP:  25; 6HR MAX TEMP:  33;

WILLIAMSBURG*  CLEAR     30  25  80 CALM      30.04S
MIDDLESBORO*   CLEAR     29  27  93 CALM      30.07S
6HR MIN TEMP:  29; 6HR MAX TEMP:  40;

HARLAN APT*    CLEAR     32  27  80 CALM      30.05S
PIKE CO APT*     N/A     37  22  55 S5        30.02S WCI  33
BIG SANDY APT* CLEAR     36  24  62 CALM      30.04R
6HR MIN TEMP:  35; 6HR MAX TEMP:  40;

MOREHEAD APT*  CLEAR     34  23  64 CALM      30.06S
$$

KYZ035-036-041-042-044-050-067-078-099-240700
...CENTRAL KENTUCKY...

CITY           SKY/WX    TMP DP  RH WIND       PRES   REMARKS
MT STERLING*   CLOUDY    30  25  80 S3        30.04F
DANVILLE*      CLOUDY    28  25  86 CALM      30.04F
LEXINGTON      CLOUDY    29  23  78 SE7       30.02F WCI  22
6HR MIN TEMP:  29; 6HR MAX TEMP:  42;

FRANKFORT      CLOUDY    29  23  78 CALM      30.01F
6HR MIN TEMP:  28; 6HR MAX TEMP:  36;

LOUISVILLE     CLEAR     36  27  69 CALM      30.02F
6HR MIN TEMP:  35; 6HR MAX TEMP:  45;

LEBANON*         N/A     32  23  69 CALM      30.03S
GLASGOW*       CLOUDY    30  28  92 CALM      30.04S
BOWLING GREEN  CLEAR     31  27  85 CALM      30.05F
6HR MIN TEMP:  31; 6HR MAX TEMP:  42;

$$

KYZ091>093-OHZ055-061-077-WVZ005-015-034-035-042-240700
...SOUTHERN OHIO/WEST VIRGINIA...

CITY           SKY/WX    TMP DP  RH WIND       PRES   REMARKS
COVINGTON      CLEAR     30  25  81 S3        30.00S
COLUMBUS       CLEAR     29  25  85 E3        30.02F
DAYTON         CLOUDY    32  25  75 S6        30.01S WCI  26
WILMINGTON     CLOUDY    31  24  75 CALM      30.00F
HUNTINGTON     CLEAR     30  24  78 CALM      30.05R
CHARLESTON     CLEAR     28  24  85 SE3       30.05R
PINEVILLE*       N/A     27  23  85 MISG      30.08F
BECKLEY        CLEAR     30  17  58 S3        30.00F
BLUEFIELD      CLEAR     34  12  40 W5        30.01S WCI  30
LOGAN CO APT*    N/A     34  25  69 CALM      30.02S
$$

VAZ002-007-008-TNZ017-027-036-066-071-240700
...SOUTHWEST VIRGINIA/EAST TENNESSEE...

CITY           SKY/WX    TMP DP  RH WIND       PRES   REMARKS
WISE*          CLEAR     34  27  75 S5        30.02S WCI  30
JONESVILLE*      N/A     27  27 100 CALM      30.07R
ABINGDON*      CLEAR     34  31  89 CALM      30.03S
BRISTOL        CLEAR     29  29 100 CALM      30.04S
MORRISTOWN*    CLEAR     36  30  80 CALM      30.03R
SEVIERVILLE*   PTCLDY    32  30  93 CALM      30.04S
KNOXVILLE      CLEAR     36  34  92 CALM      30.03S
LAFOLLETTE*    CLEAR     30  30 100 CALM      30.07S
OAK RIDGE      CLEAR     33  31  92 CALM      30.05S
CROSSVILLE     CLEAR     31  26  82 CALM      30.03S
NASHVILLE      CLEAR     34  27  75 CALM      30.05F
$$

...KEY TO REMARKS...
VSB - VISIBILITY IN MILES
WCI - WIND CHILL INDEX
HX  - HEAT INDEX

$$




USA.gov is the U.S. government's official web portal to all federal, state and local government web resources and services.